Terminal Aerodrome Forecast
Issued by NWS

Home | Current Version | Previous Version | Text Only | Print | Product List | Glossary On
Versions: 1 2 3 4 5 6 7 8 9 10 11 12 13 14 15 16 17 18 19 20 21 22 23 24 25 26 27 28 29 30 31 32 33 34 35 36
000
FTUS45 KPSR 211900 AAB
TAFPHX
TAF AMD
KPHX 211952Z 2120/2218 31008KT P6SM FEW070 BKN120 BKN200
     FM212100 27010KT P6SM SCT080 BKN120
     FM220400 12006KT P6SM SCT080 BKN120 OVC200=

USA.gov is the U.S. government's official web portal to all federal, state and local government web resources and services.